DECAYED

NOAA 16 DEB, 41420 (Decayed)

Orbit data source: Space-Track

NOAA 16 DEB, 41420 was space debris in SSO originally from a launch on Thu, 21 Sep 2000 UTC launched from the Air Force Western Test Range (AFWTR). Debris objects in space refer to the collection of defunct objects orbiting the Earth. Examples of debris include non-operational satellites, rocket bodies, and fragments generated from explosions, collisions, or faulty payload assembly.

Loading next visibility...
Identifier
41420, 2000-055KZ
Orbit
Decayed
Country
Flag of USUS
Related business
Manufacturer
Unknown
Mission
Decayed spacecraft
Bus & Motor
Unknown
Mass
Unknown
Launch date (UTC)
2000-09-21 (26 years ago)
Launch vehicle
Unknown
Launch site
Air Force Western Test Range (AFWTR)
Object type
Payload
Rocket body
Debris
Shape & HBR
Unknown shape, 0.1 m
Radar Cross Section
Medium (>0.1 m² and <1 m²)

Expand to show TLE details & history
Last TLE update: 2 years ago

TLE from 2 years ago
0 NOAA 16 DEB
1 41420U 00055KZ  25057.91753728  .11913888  00000-0  43074-1 0  9990
2 41420  98.8731 296.5877 0005705 156.3002 203.8527 15.83857555475642
Epoch: 2025-02-26T22:01Z
TLE epoch observation values (Epoch: 2025-02-26T22:01:15.220Z)
Latitude
-0.00002°
Longitude
169.2741°
Altitude
326.168 km
Speed
7.711 km/s
True Right ascension
19h 46m 21s
True Declination
0° 00' 00"
Sunlit
Object was in daylight at epoch
Visualization orbit readout
Latitude
Unknown
Longitude
Unknown
Altitude
Unknown
Speed
Unknown
Apparent Right ascension
Unknown
Apparent Declination
Unknown
Sunlit
N/A
Visualization observer readout
Local Sidereal Time
11:28:21
Azimuth
Unknown
Elevation
Unknown
Doppler factor
Unknown
Orbital elements
Apogee altitude
320.315 km
Perigee altitude
312.676 km
Semi-major axis
6,694.633 km
Eccentricity
0.00057
Inclination
98.8731°
RAAN
296.5877°
Arg. of periapsis
156.3002°
True anomaly
203.82628°
Mean anomaly
203.8527°
Eccentric anomaly
203.83949°
Mean motion
3.96235 °/min
Orbital period
90.86 mins
BSTAR
0.043074
Loading maneuver chart data...
Computing Atmospheric mass density...
Loading historical data...
Loading historical data...
Loading historical data...
Loading historical data...
Loading historical data...
Loading historical data...
Loading historical data...

Documentation

Showing up to 5 results
|